FW8355 Weather Reports


Display with metric or nautical units.
time (UTC)temp
F
wind
direction
speed
MPH
gust
MPH
rain 1hr
in
rain 24hr
in
rain mn
in
humidity
%
barometer
mb
20260509171016 70 225 1.0 3.0 0.00 0.00 0.00 62 1013.8
20260509170016 71 203 2.0 6.0 0.00 0.00 0.00 61 1013.7
20260509165016 71 225 2.0 6.0 0.00 0.00 0.00 61 1013.7
20260509164016 71 203 3.0 10.0 0.00 0.00 0.00 61 1013.6
20260509163016 71 203 5.0 9.0 0.00 0.00 0.00 60 1013.6
20260509162036 72 203 4.0 10.0 0.00 0.00 0.00 60 1013.5
20260509161036 72 203 4.0 9.0 0.00 0.00 0.00 59 1013.5
20260509160016 72 203 3.0 8.0 0.00 0.00 0.00 60 1013.3
20260509155016 72 203 4.0 9.0 0.00 0.00 0.00 60 1013.6
20260509154016 73 203 4.0 8.0 0.00 0.00 0.00 60 1013.8
20260509153016 73 203 5.0 10.0 0.00 0.00 0.00 59 1013.8
20260509152016 73 203 5.0 11.0 0.00 0.00 0.00 59 1013.9
20260509151016 73 225 6.0 12.0 0.00 0.00 0.00 60 1013.9
20260509150016 72 203 7.0 13.0 0.00 0.00 0.00 60 1013.8
20260509145016 72 203 8.0 14.0 0.00 0.00 0.00 62 1013.9
20260509144016 73 203 8.0 13.0 0.00 0.00 0.00 62 1013.9
20260509143016 73 203 7.0 15.0 0.00 0.00 0.00 62 1013.7
20260509142017 73 203 7.0 11.0 0.00 0.00 0.00 61 1013.6
20260509141016 73 203 7.0 14.0 0.00 0.00 0.00 62 1013.9
20260509140016 73 203 8.0 18.0 0.00 0.00 0.00 60 1014.2
20260509135016 73 203 7.0 16.0 0.00 0.00 0.00 61 1014.2
20260509134016 73 203 9.0 16.0 0.00 0.00 0.00 60 1014.1
20260509133016 73 225 8.0 14.0 0.00 0.00 0.00 59 1014.1
20260509132036 73 203 8.0 16.0 0.00 0.00 0.00 59 1014.0
20260509131036 74 203 8.0 17.0 0.00 0.00 0.00 58 1014.0
20260509130015 74 203 7.0 14.0 0.00 0.00 0.00 59 1014.1
20260509125016 74 203 7.0 16.0 0.00 0.00 0.00 57 1014.1
20260509124016 75 203 6.0 12.0 0.00 0.00 0.00 56 1014.0
20260509122016 74 225 5.0 11.0 0.00 0.00 0.00 57 1014.2
20260509121016 73 225 6.0 13.0 0.00 0.00 0.00 58 1014.3
20260509120016 73 203 5.0 14.0 0.00 0.00 0.00 58 1014.4
20260509115015 73 248 5.0 13.0 0.00 0.00 0.00 58 1014.3
20260509114015 74 203 7.0 13.0 0.00 0.00 0.00 56 1014.3
20260509113016 75 225 7.0 13.0 0.00 0.00 0.00 54 1014.4
20260509112015 75 248 7.0 14.0 0.00 0.00 0.00 53 1014.3
20260509111016 76 225 7.0 14.0 0.00 0.00 0.00 51 1014.2
20260509110016 77 113 3.0 7.0 0.00 0.00 0.00 49 1014.1
20260509105015 76 113 4.0 13.0 0.00 0.00 0.00 48 1014.3
20260509104015 76 113 4.0 10.0 0.00 0.00 0.00 47 1014.2
20260509103015 75 113 4.0 8.0 0.00 0.00 0.00 47 1014.1
20260509102017 75 113 10.0 16.0 0.00 0.00 0.00 48 1014.2
20260509101016 75 113 6.0 12.0 0.00 0.00 0.00 49 1014.2
20260509100017 74 113 6.0 13.0 0.00 0.00 0.00 50 1014.2
20260509095036 74 90 5.0 14.0 0.00 0.00 0.00 49 1014.1
20260509094017 74 113 8.0 13.0 0.00 0.00 0.00 49 1014.2
20260509093017 74 113 7.0 16.0 0.00 0.00 0.00 51 1014.2
20260509092017 73 90 6.0 12.0 0.00 0.00 0.00 50 1014.3
20260509091017 73 113 7.0 14.0 0.00 0.00 0.00 50 1014.3
20260509090037 72 113 8.0 14.0 0.00 0.00 0.00 50 1014.3
20260509085017 72 90 8.0 13.0 0.00 0.00 0.00 49 1014.3
20260509084017 72 90 7.0 16.0 0.00 0.00 0.00 51 1014.3
20260509083017 71 90 7.0 13.0 0.00 0.00 0.00 52 1014.2
20260509082017 71 90 8.0 18.0 0.00 0.00 0.00 51 1014.2
20260509081017 70 90 9.0 16.0 0.00 0.00 0.00 57 1014.2
20260509080017 70 90 6.0 11.0 0.00 0.00 0.00 59 1014.2
20260509075017 69 68 5.0 11.0 0.00 0.00 0.00 61 1014.1
20260509074019 69 113 4.0 11.0 0.00 0.00 0.00 64 1014.2
20260509073017 68 113 4.0 9.0 0.00 0.00 0.00 64 1014.4
20260509072017 67 90 3.0 8.0 0.00 0.00 0.00 64 1014.5
20260509071037 67 68 3.0 6.0 0.00 0.00 0.00 65 1014.6
20260509070037 66 90 4.0 8.0 0.00 0.00 0.00 66 1014.7
20260509065017 65 113 4.0 7.0 0.00 0.00 0.00 70 1014.8
20260509064017 65 113 2.0 5.0 0.00 0.00 0.00 71 1014.9
20260509063017 64 113 4.0 7.0 0.00 0.00 0.00 71 1014.8
20260509062017 64 113 2.0 7.0 0.00 0.00 0.00 71 1014.9
20260509061017 63 90 2.0 5.0 0.00 0.00 0.00 75 1014.9
20260509060017 62 113 1.0 4.0 0.00 0.00 0.00 75 1014.8
20260509055037 61 90 1.0 5.0 0.00 0.00 0.00 78 1014.8
20260509054037 60 113 2.0 5.0 0.00 0.00 0.00 78 1014.9
20260509053017 61 113 3.0 8.0 0.00 0.00 0.00 76 1014.8
20260509052017 60 45 3.0 5.0 0.00 0.00 0.00 75 1014.8
20260509051017 60 23 2.0 5.0 0.00 0.00 0.00 77 1014.7
20260509050017 58 23 3.0 6.0 0.00 0.00 0.00 78 1014.7
20260509045017 58 23 1.0 3.0 0.00 0.00 0.00 81 1014.5
20260509044017 56 0.0 2.0 0.00 0.00 0.00 83 1014.5
20260509043057 55 23 1.0 4.0 0.00 0.00 0.00 84 1014.2
20260509042017 55 0.0 0.0 0.00 0.00 0.00 84 1014.1
20260509041017 55 23 1.0 3.0 0.00 0.00 0.00 84 1014.0
20260509040017 55 0 2.0 4.0 0.00 0.00 0.00 84 1013.9
20260509035017 54 45 3.0 5.0 0.00 0.00 0.00 85 1013.7
20260509034017 55 0.0 0.0 0.00 0.00 0.00 85 1013.8
20260509033016 55 23 1.0 2.0 0.00 0.00 0.00 85 1013.8
20260509032037 55 338 1.0 4.0 0.00 0.00 0.00 86 1013.8
20260509031016 54 23 2.0 4.0 0.00 0.00 0.00 87 1013.9
20260509030037 54 0.0 1.0 0.00 0.00 0.00 86 1013.9
20260509025017 54 338 2.0 3.0 0.00 0.00 0.00 86 1013.9
20260509024016 54 338 1.0 2.0 0.00 0.00 0.00 87 1014.0
20260509023017 54 23 1.0 3.0 0.00 0.00 0.00 87 1014.0
20260509022036 53 0.0 0.0 0.00 0.00 0.00 87 1013.8
20260509021037 54 0.0 0.0 0.00 0.00 0.00 87 1013.8
20260509020017 54 0.0 1.0 0.00 0.00 0.00 86 1013.7
20260509015016 54 0.0 0.0 0.00 0.00 0.00 86 1013.7
20260509014016 53 0.0 0.0 0.00 0.00 0.00 87 1013.6
20260509013016 53 0.0 0.0 0.00 0.00 0.00 86 1013.4
20260509012017 53 0.0 1.0 0.00 0.00 0.00 87 1013.3
20260509011016 53 0.0 3.0 0.00 0.00 0.00 86 1013.3
20260509010016 53 0.0 3.0 0.00 0.00 0.00 87 1013.2
20260509005016 53 0.0 1.0 0.00 0.00 0.00 87 1013.2
20260509004036 53 0.0 3.0 0.00 0.00 0.00 86 1013.0
20260509003016 53 0.0 0.0 0.00 0.00 0.00 86 1013.1
20260509002016 54 0.0 3.0 0.00 0.00 0.00 86 1013.1
20260509001016 54 0.0 3.0 0.00 0.00 0.00 85 1013.1
20260509000016 55 0.0 0.0 0.00 0.00 0.00 86 1013.1
20260508235016 55 0.0 0.0 0.00 0.00 0.00 86 1013.1
20260508234036 56 0.0 0.0 0.00 0.00 0.00 85 1013.3
20260508233016 56 0.0 0.0 0.00 0.00 0.00 85 1013.3
20260508232016 56 0.0 1.0 0.00 0.00 0.00 84 1013.2
20260508231016 57 0.0 3.0 0.00 0.00 0.00 82 1013.2
20260508230016 58 23 2.0 4.0 0.00 0.00 0.00 82 1013.2
20260508225016 58 23 2.0 5.0 0.00 0.00 0.00 82 1013.1
20260508224016 58 23 3.0 8.0 0.00 0.00 0.00 81 1013.1
20260508223016 59 23 3.0 6.0 0.00 0.00 0.00 78 1013.1
20260508222036 59 45 1.0 5.0 0.00 0.00 0.00 77 1013.1
20260508221016 59 23 4.0 8.0 0.00 0.00 0.00 78 1013.2
20260508220016 58 23 3.0 7.0 0.00 0.00 0.00 81 1013.3
20260508215016 59 45 3.0 5.0 0.00 0.00 0.00 80 1013.4
20260508214016 59 23 5.0 7.0 0.00 0.00 0.00 81 1013.4
20260508213016 59 23 3.0 5.0 0.00 0.00 0.00 79 1013.4
20260508212017 59 45 3.0 5.0 0.00 0.00 0.00 77 1013.5
20260508211038 60 23 3.0 7.0 0.00 0.00 0.00 77 1013.4
20260508210017 59 23 3.0 8.0 0.00 0.00 0.00 78 1013.3
20260508205016 59 23 3.0 7.0 0.00 0.00 0.00 80 1013.2
20260508204037 59 45 2.0 6.0 0.00 0.00 0.00 79 1013.1
20260508203016 59 45 3.0 6.0 0.00 0.00 0.00 75 1013.1
20260508202017 60 45 3.0 7.0 0.00 0.00 0.00 75 1013.1
20260508201016 60 45 3.0 8.0 0.00 0.00 0.00 73 1013.2
20260508200017 60 23 4.0 8.0 0.00 0.00 0.00 73 1013.0
20260508195036 60 68 4.0 11.0 0.00 0.00 0.00 73 1012.9
20260508194016 60 68 3.0 7.0 0.00 0.00 0.00 73 1012.7
20260508193016 60 68 2.0 5.0 0.00 0.00 0.00 73 1012.5
20260508192016 61 45 4.0 10.0 0.00 0.00 0.00 73 1012.6
20260508191016 61 45 4.0 10.0 0.00 0.00 0.00 72 1012.7
20260508190036 61 23 3.0 7.0 0.00 0.00 0.00 72 1012.6
20260508185056 61 45 5.0 13.0 0.00 0.00 0.00 71 1012.4
20260508184016 61 68 6.0 14.0 0.00 0.00 0.00 70 1012.4
20260508183016 62 68 8.0 14.0 0.00 0.00 0.00 70 1012.0
20260508182016 62 68 6.0 11.0 0.00 0.00 0.00 70 1011.7
20260508181016 61 68 7.0 13.0 0.00 0.00 0.00 71 1011.6
20260508180016 62 113 5.0 14.0 0.00 0.00 0.00 71 1011.5
20260508175016 62 90 5.0 10.0 0.00 0.00 0.00 70 1011.2
20260508174036 62 68 4.0 11.0 0.00 0.00 0.00 71 1011.0
20260508173036 63 68 5.0 11.0 0.00 0.00 0.00 70 1010.9
20260508172016 63 68 5.0 10.0 0.00 0.00 0.00 70 1010.8